THOR ABLESTAR DEB, 5748

Orbit data source: Space-Track

THOR ABLESTAR DEB, 5748 is space debris in LEO originally from a launch on Thu, 29 Jun 1961 UTC launched from the Air Force Eastern Test Range (AFETR). Debris objects in space refer to the collection of defunct objects orbiting the Earth. Examples of debris include non-operational satellites, rocket bodies, and fragments generated from explosions, collisions, or faulty payload assembly.

Loading next visibility...
Identifier
5748, 1961-015JX
Orbit
LEO
Country
Flag of USUS
Related business
Manufacturer
Unknown
Mission
Spacecraft
Bus & Motor
Unknown
Mass
Unknown
Launch date (UTC)
1961-06-29 (64 years ago)
Launch vehicle
Unknown
Launch site
Air Force Eastern Test Range (AFETR)
Object type
Payload
Rocket body
Debris
Shape & HBR
Unknown shape, 0.1 m
Radar Cross Section
Small (<0.1 m²)

Expand to show TLE details & history
Last TLE update: 1 day ago

TLE from 1 day ago
0 THOR ABLESTAR DEB
1  5748U 61015JX  25299.33286568  .00000976  00000-0  11612-2 0  9990
2  5748  67.5560 254.2420 0127457 239.5878 274.9694 13.67916967122665
Epoch: 2025-10-26T07:59Z
TLE epoch observation values (Epoch: 2025-10-26T07:59:19.594Z)
Latitude
24.75917°
Longitude
-91.465°
Altitude
1,002.3 km
Speed
7.356 km/s
True Right ascension
04h 13m 16s
True Declination
24° 37' 59"
Sunlit
Object was in full shadow at epoch
Visualization orbit readout
Latitude
Unknown
Longitude
Unknown
Altitude
Unknown
Speed
Unknown
Apparent Right ascension
Unknown
Apparent Declination
Unknown
Sunlit
N/A
Visualization observer readout
Local Sidereal Time
08:23:22
Azimuth
Unknown
Elevation
Unknown
Doppler factor
Unknown
Orbital elements
Apogee altitude
1,099.493 km
Perigee altitude
911.277 km
Semi-major axis
7,383.522 km
Eccentricity
0.01275
Inclination
67.556°
RAAN
254.242°
Arg. of periapsis
239.5878°
True anomaly
273.51249°
Mean anomaly
274.9694°
Eccentric anomaly
274.24112°
Mean motion
3.42096 °/min
Orbital period
105.23 mins
BSTAR
0.0011612
Loading maneuver chart data...
Computing Atmospheric mass density...

Documentation

Showing up to 5 results
|